Williams, AZ

6:38 PM MST on July 26, 2017 (GMT -0700)
Williams

Weather History for KCMR - May, 2013

Change the Weather History Date:

Saturday, May 11, 2013

  Actual Average (K40G) Record (K40G)
Temperature  
Mean Temperature 52 °F -  
Max Temperature 68 °F 65 °F 73 °F (1998)
Min Temperature 35 °F 57 °F 50 °F (1998)
Degree Days  
Heating Degree Days 14    
Growing Degree Days 2 (Base 50)    
Moisture  
Dew Point 28 °F    
Average Humidity 41    
Maximum Humidity 81    
Minimum Humidity 18    
Precipitation  
Precipitation 0.00 in - - ()
Sea Level Pressure  
Sea Level Pressure 30.42 in    
Wind  
Wind Speed 6 mph (East)    
Max Wind Speed 17 mph    
Max Gust Speed 26 mph    
Visibility 10 miles    
Events      
Averages and records for this station are not official NWS values.
T = Trace of Precipitation, MM = Missing Value Source: NWS Daily Summary

Daily Weather History Graph

Daily Weather History Graph

Search for Another Location

Airport or City:

Trip Planner

Search our weather history database for the weather conditions in past years. The results will help you decide how hot, cold, wet, or windy it might be!

Date:

Astronomy

May. 11, 2013 Rise Set
Actual Time 5:27 AM MST 7:23 PM MST
Civil Twilight 4:59 AM MST 7:51 PM MST
Nautical Twilight 4:25 AM MST 8:25 PM MST
Astronomical Twilight 3:49 AM MST 9:01 PM MST
Moon 6:39 AM MST (5/11) 9:05 PM MST (5/11)
Length of Visible Light 14h 51m
Length of Day
13h 55m
Waxing Crescent, 3% of the Moon is Illuminated
May 11
Waxing Crescent
May 17
First Quarter
May 24
Full
May 31
Last Quarter
Jun 8
New

Hourly Weather History & Observations

Time (MST) Temp. Windchill Dew Point Humidity Pressure Visibility Wind Dir Wind Speed Gust Speed Precip Events Conditions
12:15 AM 50.0 °F - 33.8 °F 54% 30.41 in 10.0 mi NE 15.0 mph 19.6 mph N/A   Partly Cloudy
12:35 AM 50.0 °F - 33.8 °F 54% 30.39 in 10.0 mi ESE 4.6 mph - N/A   Clear
12:55 AM 48.2 °F - 33.8 °F 58% 30.39 in 10.0 mi Calm Calm - N/A   Scattered Clouds
1:15 AM 48.2 °F - 33.8 °F 58% 30.39 in 10.0 mi NNE 4.6 mph - N/A   Partly Cloudy
1:35 AM 46.4 °F 45.2 °F 32.0 °F 57% 30.39 in 10.0 mi East 3.5 mph - N/A   Clear
1:55 AM 41.0 °F - 32.0 °F 70% 30.39 in 10.0 mi Calm Calm - N/A   Clear
2:15 AM 46.4 °F - 32.0 °F 57% 30.40 in 10.0 mi Calm Calm - N/A   Clear
2:35 AM 46.4 °F - 32.0 °F 57% 30.39 in 10.0 mi Calm Calm - N/A   Clear
2:55 AM 42.8 °F 38.6 °F 32.0 °F 66% 30.39 in 10.0 mi SE 6.9 mph - N/A   Clear
3:15 AM 42.8 °F - 32.0 °F 66% 30.39 in 10.0 mi Calm Calm - N/A   Clear
3:35 AM 41.0 °F 37.1 °F 32.0 °F 70% 30.39 in 10.0 mi South 5.8 mph - N/A   Clear
3:55 AM 41.0 °F - 32.0 °F 70% 30.39 in 10.0 mi Calm Calm - N/A   Clear
4:15 AM 39.2 °F - 32.0 °F 75% 30.40 in 10.0 mi Calm Calm - N/A   Clear
4:35 AM 37.4 °F 32.8 °F 32.0 °F 81% 30.40 in 10.0 mi SSE 5.8 mph - N/A   Clear
4:55 AM 37.4 °F - 32.0 °F 81% 30.40 in 10.0 mi Calm Calm - N/A   Clear
5:15 AM 39.2 °F - 32.0 °F 75% 30.40 in 10.0 mi Calm Calm - N/A   Clear
5:35 AM 41.0 °F 39.0 °F 32.0 °F 70% 30.40 in 10.0 mi SSE 3.5 mph - N/A   Clear
5:55 AM 35.6 °F - 30.2 °F 81% 30.40 in 10.0 mi Calm Calm - N/A   Clear
6:15 AM 37.4 °F - 32.0 °F 81% 30.41 in 10.0 mi Calm Calm - N/A   Clear
6:35 AM 41.0 °F - 32.0 °F 70% 30.41 in 10.0 mi Calm Calm - N/A   Clear
6:55 AM 46.4 °F - 32.0 °F 57% 30.42 in 10.0 mi Calm Calm - N/A   Clear
7:15 AM 51.8 °F - 32.0 °F 47% 30.42 in 10.0 mi ESE 4.6 mph - N/A   Clear
7:35 AM 53.6 °F - 32.0 °F 44% 30.41 in 10.0 mi Calm Calm - N/A   Clear
7:55 AM 55.4 °F - 32.0 °F 41% 30.41 in 10.0 mi NE 11.5 mph - N/A   Clear
8:15 AM 57.2 °F - 32.0 °F 38% 30.41 in 10.0 mi ENE 17.3 mph 21.9 mph N/A   Clear
8:35 AM 59.0 °F - 32.0 °F 36% 30.41 in 10.0 mi East 11.5 mph - N/A   Clear
8:55 AM 59.0 °F - 32.0 °F 36% 30.42 in 10.0 mi East 8.1 mph - N/A   Clear
9:15 AM 60.8 °F - 32.0 °F 34% 30.42 in 10.0 mi East 9.2 mph - N/A   Clear
9:35 AM 62.6 °F - 32.0 °F 32% 30.42 in 10.0 mi East 6.9 mph - N/A   Clear
9:55 AM 60.8 °F - 32.0 °F 34% 30.43 in 10.0 mi SSE 5.8 mph - N/A   Clear
10:15 AM 60.8 °F - 33.8 °F 36% 30.43 in 10.0 mi ESE 12.7 mph 16.1 mph N/A   Scattered Clouds
10:35 AM 64.4 °F - 32.0 °F 30% 30.44 in 10.0 mi ENE 10.4 mph - N/A   Scattered Clouds
10:55 AM 64.4 °F - 32.0 °F 30% 30.44 in 10.0 mi ESE 12.7 mph 20.7 mph N/A   Mostly Cloudy
11:15 AM 62.6 °F - 32.0 °F 32% 30.44 in 10.0 mi ESE 8.1 mph 18.4 mph N/A   Scattered Clouds
11:35 AM 64.4 °F - 30.2 °F 28% 30.45 in 10.0 mi East 13.8 mph 25.3 mph N/A   Mostly Cloudy
11:55 AM 62.6 °F - 26.6 °F 26% 30.44 in 10.0 mi East 9.2 mph 26.5 mph N/A   Mostly Cloudy
12:15 PM 64.4 °F - 26.6 °F 24% 30.44 in 10.0 mi ENE 15.0 mph 20.7 mph N/A   Partly Cloudy
12:35 PM 64.4 °F - 24.8 °F 22% 30.44 in 10.0 mi ENE 12.7 mph 19.6 mph N/A   Scattered Clouds
12:55 PM 64.4 °F - 23.0 °F 21% 30.44 in 10.0 mi NE 15.0 mph 20.7 mph N/A   Scattered Clouds
1:15 PM 66.2 °F - 23.0 °F 19% 30.44 in 10.0 mi ENE 15.0 mph 19.6 mph N/A   Scattered Clouds
1:35 PM 64.4 °F - 24.8 °F 22% 30.44 in 10.0 mi East 6.9 mph 18.4 mph N/A   Scattered Clouds
1:55 PM 66.2 °F - 26.6 °F 23% 30.43 in 10.0 mi ENE 6.9 mph - N/A   Scattered Clouds
2:15 PM 66.2 °F - 24.8 °F 21% 30.42 in 10.0 mi ESE 8.1 mph - N/A   Scattered Clouds
2:35 PM 68.0 °F - 26.6 °F 21% 30.42 in 10.0 mi SE 9.2 mph 19.6 mph N/A   Scattered Clouds
2:55 PM 66.2 °F - 24.8 °F 21% 30.41 in 10.0 mi Calm Calm - N/A   Partly Cloudy
3:15 PM 68.0 °F - 24.8 °F 20% 30.40 in 10.0 mi NE 13.8 mph 18.4 mph N/A   Scattered Clouds
3:35 PM 68.0 °F - 24.8 °F 20% 30.40 in 10.0 mi ENE 6.9 mph - N/A   Scattered Clouds
3:55 PM 68.0 °F - 24.8 °F 20% 30.40 in 10.0 mi East 9.2 mph - N/A   Scattered Clouds
4:15 PM 66.2 °F - 24.8 °F 21% 30.40 in 10.0 mi Calm Calm - N/A   Partly Cloudy
4:35 PM 68.0 °F - 23.0 °F 18% 30.40 in 10.0 mi East 10.4 mph 16.1 mph N/A   Mostly Cloudy
4:55 PM 66.2 °F - 23.0 °F 19% 30.40 in 10.0 mi ENE 10.4 mph - N/A   Mostly Cloudy
5:15 PM 66.2 °F - 23.0 °F 19% 30.40 in 10.0 mi ENE 10.4 mph - N/A   Scattered Clouds
5:35 PM 66.2 °F - 23.0 °F 19% 30.40 in 10.0 mi East 8.1 mph - N/A   Mostly Cloudy
5:55 PM 66.2 °F - 23.0 °F 19% 30.40 in 10.0 mi ESE 8.1 mph - N/A   Mostly Cloudy
6:15 PM 66.2 °F - 24.8 °F 21% 30.40 in 10.0 mi East 10.4 mph 17.3 mph N/A   Scattered Clouds
6:35 PM 66.2 °F - 23.0 °F 19% 30.40 in 10.0 mi East 8.1 mph - N/A   Scattered Clouds
6:55 PM 64.4 °F - 23.0 °F 21% 30.41 in 10.0 mi NE 12.7 mph - N/A   Mostly Cloudy
7:15 PM 62.6 °F - 24.8 °F 24% 30.42 in 10.0 mi NE 10.4 mph - N/A   Scattered Clouds
7:35 PM 62.6 °F - 23.0 °F 22% 30.43 in 10.0 mi NE 9.2 mph - N/A   Partly Cloudy
7:55 PM 57.2 °F - 24.8 °F 29% 30.43 in 10.0 mi East 5.8 mph - N/A   Clear
8:15 PM 57.2 °F - 24.8 °F 29% 30.44 in 10.0 mi Calm Calm - N/A   Clear
8:35 PM 55.4 °F - 24.8 °F 31% 30.44 in 10.0 mi Calm Calm - N/A   Clear
8:55 PM 53.6 °F - 24.8 °F 33% 30.45 in 10.0 mi Calm Calm - N/A   Clear
9:15 PM 46.4 °F - 26.6 °F 46% 30.46 in 10.0 mi Calm Calm - N/A   Clear
9:35 PM 46.4 °F 42.9 °F 26.6 °F 46% 30.46 in 10.0 mi SSE 6.9 mph - N/A   Clear
9:55 PM 46.4 °F 42.9 °F 26.6 °F 46% 30.47 in 10.0 mi SSE 6.9 mph - N/A   Clear
10:15 PM 44.6 °F 40.7 °F 26.6 °F 49% 30.47 in 10.0 mi SSE 6.9 mph - N/A   Clear
10:35 PM 44.6 °F 40.2 °F 26.6 °F 49% 30.47 in 10.0 mi SSE 8.1 mph - N/A   Clear
10:55 PM 44.6 °F 40.2 °F 26.6 °F 49% 30.47 in 10.0 mi SSE 8.1 mph - N/A   Clear
11:15 PM 42.8 °F 37.5 °F 26.6 °F 53% 30.47 in 10.0 mi SSE 9.2 mph - N/A   Clear
11:35 PM 42.8 °F 38.0 °F 26.6 °F 53% 30.46 in 10.0 mi SSE 8.1 mph - N/A   Clear
11:55 PM 41.0 °F 35.2 °F 26.6 °F 57% 30.46 in 10.0 mi SSE 9.2 mph - N/A   Clear